Temperature
8 8 8 7 7 7 7 7 7 6 6 6 6 6 6 6 6 6 5 5 5 5 5 4 5 4 4 4 4 4 3 3 3 3 3 3 3 3 3 3 3 3 4
7 7 7 7 7 7 6 6 6 6 6 6 6 6 5 5 5 5 5 5 5 4 4 4 4 4 4 4 4 3 3 3 2 2 3 3 3 3 3 3 3 3 3
7 7 6 6 6 6 6 6 6 5 5 5 5 5 5 5 5 4 4 4 4 4 4 4 4 3 3 3 3 3 3 2 2 2 2 2 2 2 2 2 2 2 2
6 6 6 6 6 5 5 5 5 5 5 5 4 4 4 4 4 4 4 4 3 3 3 3 3 3 3 3 2 2 2 2 1 1 1 1 1 1 1 1 2 2 2
6 6 5 5 5 5 5 4 4 4 4 4 4 4 4 4 4 3 3 3 3 3 3 3 3 2 2 2 2 2 1 1 1 1 1 1 1 1 1 1 1 1 1
5 5 5 5 4 4 4 4 4 4 3 3 3 3 3 3 3 3 2 2 2 2 2 2 2 2 2 2 1 1 1 1 0 0 0 0 0 -0 -0 -0 -0 -0 0
5 4 4 4 4 4 4 3 3 3 3 3 3 3 3 3 3 2 2 2 2 2 2 1 1 1 1 1 1 1 1 0 0 -0 -0 -0 -0 -0 -1 -1 -1 -1 -1
4 4 4 4 3 3 3 3 3 3 3 3 3 3 2 2 2 2 2 1 1 1 1 1 1 1 0 0 0 0 0 0 -0 -0 -1 -1 -1 -1 -1 -1 -1 -1 -1
3 3 3 3 3 3 3 2 2 2 2 2 2 2 2 2 2 2 1 1 1 1 1 1 0 0 0 -0 -0 -0 -0 -0 -0 -1 -1 -1 -1 -1 -1 -1 -1 -2 -2
3 3 3 2 2 2 2 2 2 2 2 2 2 2 1 2 1 1 1 1 0 1 0 0 0 0 -0 -1 -1 -1 -1 -1 -1 -1 -1 -1 -1 -1 -2 -2 -2 -2 -2
2 2 2 2 2 2 2 2 1 1 1 1 1 1 1 1 1 1 0 0 0 0 0 0 -0 -0 -1 -1 -1 -1 -1 -1 -2 -2 -2 -1 -1 -2 -2 -2 -2 -2 -3
2 1 1 1 1 1 1 1 1 1 1 1 0 1 1 1 0 0 0 0 -0 -0 -0 -0 -1 -1 -1 -1 -1 -2 -2 -2 -2 -2 -2 -2 -2 -2 -2 -2 -3 -3 -3
1 1 1 1 1 1 1 0 0 0 0 0 -0 -0 0 0 -0 -0 -0 -0 -1 -1 -1 -1 -1 -1 -2 -2 -2 -2 -2 -2 -3 -3 -3 -2 -3 -3 -3 -3 -3 -3 -3
1 1 0 0 0 0 0 0 -0 -0 -0 -0 -0 -0 -0 -0 -0 -0 -1 -1 -1 -1 -1 -1 -2 -2 -2 -2 -2 -2 -3 -3 -3 -3 -3 -3 -3 -3 -4 -4 -4 -4 -4
0 0 -0 -0 -0 -0 -0 -0 -0 -0 -0 -1 -1 -1 -1 -1 -1 -1 -1 -1 -1 -2 -2 -2 -2 -2 -2 -2 -3 -3 -3 -3 -3 -3 -4 -4 -4 -4 -4 -4 -4 -4 -4
-0 -0 -0 -1 -1 -1 -1 -1 -1 -1 -1 -1 -1 -1 -1 -1 -1 -2 -2 -2 -2 -2 -2 -2 -2 -2 -2 -3 -3 -3 -3 -3 -4 -4 -4 -4 -4 -5 -5 -5 -5 -5 -5
-0 -1 -1 -1 -1 -1 -1 -1 -1 -1 -1 -1 -1 -2 -2 -2 -2 -2 -2 -2 -2 -3 -3 -3 -3 -3 -3 -3 -3 -3 -3 -4 -4 -4 -4 -4 -5 -5 -5 -5 -5 -5 -5
-1 -1 -1 -1 -1 -2 -2 -2 -2 -2 -2 -2 -2 -2 -2 -2 -2 -2 -3 -3 -3 -3 -3 -3 -3 -3 -3 -3 -3 -4 -4 -4 -4 -5 -5 -5 -5 -5 -5 -5 -5 -5 -6
-2 -2 -2 -2 -2 -2 -2 -2 -3 -3 -3 -3 -2 -2 -2 -3 -3 -3 -3 -3 -3 -3 -3 -3 -3 -3 -3 -4 -4 -4 -4 -5 -5 -5 -5 -5 -5 -5 -5 -5 -6 -6 -6
-2 -2 -2 -2 -2 -2 -3 -3 -3 -3 -3 -3 -3 -3 -3 -3 -3 -3 -3 -3 -3 -3 -3 -4 -4 -4 -4 -4 -4 -4 -5 -5 -5 -5 -5 -5 -5 -6 -6 -6 -6 -6 -6
-2 -2 -3 -3 -3 -3 -3 -3 -3 -3 -4 -4 -3 -3 -3 -3 -3 -3 -3 -3 -3 -4 -4 -4 -4 -4 -4 -5 -5 -5 -5 -5 -5 -5 -6 -6 -6 -6 -6 -6 -6 -6 -6
-3 -3 -3 -3 -3 -3 -3 -4 -4 -4 -4 -4 -4 -4 -4 -4 -4 -4 -4 -4 -4 -4 -4 -4 -4 -5 -5 -5 -5 -5 -5 -5 -5 -6 -6 -6 -6 -6 -6 -6 -6 -6 -7
-3 -3 -3 -3 -4 -4 -4 -4 -4 -4 -4 -4 -4 -4 -4 -4 -4 -4 -4 -4 -4 -4 -5 -5 -5 -5 -5 -5 -5 -5 -6 -6 -6 -6 -6 -6 -6 -6 -6 -6 -6 -7 -7
-4 -4 -4 -4 -4 -4 -4 -4 -4 -4 -4 -4 -5 -4 -4 -4 -4 -4 -4 -5 -5 -5 -5 -5 -5 -5 -5 -5 -6 -6 -6 -6 -6 -6 -6 -6 -6 -6 -7 -7 -7 -7 -7
-4 -4 -4 -4 -4 -4 -5 -5 -5 -5 -5 -5 -5 -5 -5 -5 -5 -5 -5 -5 -5 -5 -5 -6 -6 -6 -6 -6 -6 -6 -6 -6 -6 -7 -7 -7 -7 -7 -7 -7 -7 -7 -7
-4 -4 -5 -5 -5 -5 -5 -5 -5 -5 -5 -5 -5 -5 -5 -5 -5 -5 -5 -5 -5 -5 -6 -6 -6 -6 -6 -6 -6 -6 -6 -6 -7 -7 -7 -7 -7 -7 -7 -7 -7 -7 -7
Wind_Speed
4 4 3 3 3 3 3 3 3 3 3 3 3 3 4 3 3 3 3 3 4 4 3 3 4 3 3 2 2 3 3 4 6 5 4 4 4 4 5 6 6 6 7
4 4 4 3 3 3 3 3 3 3 3 3 3 3 4 4 3 4 4 4 4 4 4 4 4 4 4 3 3 3 4 4 5 7 5 4 5 4 4 5 6 6 6
3 3 3 3 4 4 3 3 3 3 3 3 3 4 4 4 4 4 5 4 4 5 5 5 5 4 4 4 4 4 4 4 4 5 6 4 4 4 4 5 5 5 6
4 4 4 4 4 4 3 3 3 3 3 4 4 4 5 4 5 5 5 5 5 5 5 5 5 5 5 4 4 5 4 4 4 5 5 4 4 4 3 4 5 4 4
4 4 4 4 4 3 3 3 3 4 4 4 4 5 5 5 5 5 5 5 5 5 5 5 5 6 7 6 5 4 4 4 4 4 5 4 4 4 4 4 5 5 5
4 4 4 4 4 4 4 4 4 4 4 4 5 5 5 5 7 8 6 5 5 5 6 5 5 6 7 8 9 8 7 6 5 5 5 5 6 5 4 4 4 4 5
4 4 4 4 4 4 4 4 5 5 4 5 5 5 6 7 9 9 9 6 5 6 6 6 6 5 7 5 8 10 9 11 10 6 6 6 6 5 5 5 4 5 6
4 5 5 5 5 4 4 5 5 4 5 5 6 6 6 7 9 10 10 6 6 6 7 7 6 6 6 6 5 6 6 7 8 6 6 6 5 5 5 5 5 5 6
5 5 5 5 5 5 5 6 5 5 5 5 5 6 6 7 10 10 9 4 5 7 7 7 7 7 10 10 6 6 6 6 8 9 9 8 9 9 6 3 3 3 5
5 5 4 4 5 6 6 6 5 5 5 5 6 6 7 7 9 10 9 4 5 6 6 7 9 9 10 11 7 6 7 6 5 5 6 7 6 6 7 4 4 4 4
4 4 4 4 5 5 5 5 5 4 5 5 6 6 7 8 9 11 10 6 6 6 5 5 6 11 11 11 9 6 8 7 4 4 4 4 4 3 4 4 4 4 4
3 4 4 5 5 4 5 5 5 5 5 6 6 6 6 6 8 9 12 11 9 7 6 5 6 10 11 10 8 9 10 7 3 3 4 4 4 4 3 3 4 4 5
3 4 4 4 5 5 5 5 5 5 5 5 5 6 6 5 6 10 11 11 11 7 5 7 9 10 9 7 9 10 7 4 3 4 5 5 4 3 3 3 3 3 5
4 4 4 4 5 4 4 4 5 5 5 5 5 6 5 4 4 4 4 5 7 6 4 6 8 8 6 6 6 5 4 4 4 4 4 3 2 3 3 3 3 3 3
4 4 4 4 5 5 5 5 6 6 6 6 6 5 5 6 7 7 5 4 4 5 3 2 3 3 4 4 3 3 3 4 4 3 3 4 3 3 3 2 3 3 4
4 4 4 4 4 4 4 5 7 8 9 10 9 8 7 9 10 10 10 10 9 8 5 4 5 5 5 5 4 4 4 4 4 4 4 4 4 4 4 3 3 4 5
6 5 4 4 4 4 4 4 5 6 8 9 10 11 10 10 10 10 10 9 9 8 5 5 6 5 5 5 4 4 4 4 4 4 4 4 4 4 4 4 4 4 4
6 6 6 5 5 5 5 5 5 5 6 6 7 10 11 10 10 10 9 7 6 6 5 6 6 5 5 5 5 4 4 4 3 4 4 4 4 4 4 5 4 5 5
6 5 5 5 5 5 5 5 5 6 6 6 5 6 9 8 8 9 7 5 5 5 5 5 5 5 4 4 4 4 4 4 4 4 4 4 4 4 5 5 5 6 5
5 8 7 5 5 5 5 5 5 6 6 6 6 5 4 4 4 4 4 4 5 5 5 5 5 4 4 4 4 4 4 4 4 4 4 4 4 4 5 5 5 4 4
5 6 8 6 5 5 5 6 6 6 6 6 6 6 8 5 5 5 5 5 5 5 4 4 4 4 4 4 4 4 5 4 4 4 4 4 4 4 4 4 4 4 4
4 5 5 5 5 5 6 6 6 6 6 7 5 6 10 6 4 5 5 4 4 4 4 4 4 4 4 4 4 4 4 4 4 4 4 4 4 4 3 3 3 3 3
5 5 5 5 5 8 7 6 6 6 6 6 6 5 5 4 4 4 4 4 3 3 3 3 3 3 4 4 5 4 5 5 4 4 4 4 3 4 3 4 4 4 4
5 5 6 5 5 5 6 6 6 6 6 5 5 5 5 4 4 4 4 3 3 3 3 3 4 5 5 5 5 5 5 5 5 5 5 4 4 3 3 3 3 4 4
5 5 5 5 6 6 6 6 5 5 5 5 5 5 4 4 4 4 4 3 4 3 4 4 4 5 6 6 6 5 6 7 6 5 4 4 3 3 3 3 3 3 3
5 5 5 5 5 5 5 5 5 5 5 5 5 4 4 4 4 4 4 3 3 3 3 3 4 5 6 5 6 6 7 7 6 5 4 3 3 3 3 2 3 3 3
Wind_Direction
169 173 175 182 186 189 197 206 208 214 214 218 224 225 228 230 227 226 234 236 241 249 248 245 252 250 249 253 252 259 262 254 263 279 285 294 299 301 314 310 301 298 298
175 176 180 182 190 200 208 213 210 219 221 227 233 235 237 239 233 229 238 238 234 240 243 242 251 254 249 246 247 253 258 256 258 276 286 290 286 290 295 302 303 297 297
174 181 188 195 201 209 214 216 216 219 224 227 230 238 243 242 239 236 235 237 234 236 237 239 244 243 249 250 246 249 257 266 259 267 279 285 286 291 295 295 293 296 297
182 192 205 209 207 209 216 220 223 223 225 231 232 237 243 243 241 239 237 237 237 238 237 238 241 237 241 246 249 250 254 260 261 264 269 277 280 284 288 288 293 289 292
192 206 215 214 208 208 215 221 226 232 236 239 243 245 245 243 241 237 237 238 236 240 241 242 241 236 239 246 250 247 249 253 258 261 267 278 281 289 283 280 286 295 289
203 216 219 214 210 210 214 221 228 236 240 240 242 244 247 251 247 246 245 243 240 239 244 246 244 241 244 254 259 261 259 254 253 255 261 265 273 278 280 281 290 297 292
214 219 221 215 214 214 216 223 230 235 241 245 246 246 248 247 250 254 252 252 245 243 242 243 248 244 246 239 252 260 263 263 261 258 255 259 268 271 274 278 276 276 275
224 225 224 217 218 219 222 229 234 234 238 243 245 246 251 252 251 254 253 250 245 243 240 237 238 237 239 237 237 244 248 253 258 257 248 254 260 266 262 264 266 279 281
230 229 225 216 218 221 228 234 236 237 243 243 243 243 248 254 251 252 251 244 245 248 245 240 238 235 244 246 243 245 253 258 262 258 258 263 272 278 279 277 271 276 281
236 233 227 221 224 227 231 236 236 235 242 245 250 246 246 250 250 248 246 240 247 252 249 243 243 245 248 246 238 234 247 255 254 260 261 265 269 272 269 248 236 251 266
235 232 230 227 230 235 238 237 232 235 240 245 251 253 248 246 248 248 245 240 241 248 249 246 243 248 251 252 249 238 246 255 247 247 254 259 259 254 257 253 239 236 245
232 234 235 234 234 235 232 239 233 228 238 246 250 256 251 243 245 246 247 248 250 246 246 244 244 249 249 251 252 251 255 259 247 247 255 260 260 257 255 259 259 257 250
237 236 240 240 237 233 228 233 237 231 235 245 244 252 256 244 243 249 253 254 254 249 244 247 253 251 249 248 250 253 252 242 234 245 254 259 256 251 255 265 270 273 273
239 243 241 241 242 238 238 233 233 233 235 241 247 251 255 249 246 244 244 252 253 252 250 250 252 250 248 246 249 250 237 231 237 244 251 255 255 249 247 249 258 264 274
238 243 244 244 246 243 243 242 242 239 235 237 242 241 244 250 250 248 250 248 240 238 243 241 242 243 237 233 234 235 230 233 243 242 245 252 252 251 254 251 251 257 262
239 241 239 240 245 245 250 268 259 253 258 256 255 255 255 251 259 258 257 258 257 253 247 236 239 237 234 231 233 235 234 231 232 235 240 243 247 247 254 254 250 253 261
237 241 241 239 239 241 246 252 272 280 266 261 261 263 261 261 262 261 260 259 255 248 243 235 235 235 232 227 229 233 237 232 226 232 240 242 246 248 252 255 253 257 261
239 241 240 240 237 236 239 246 251 260 273 274 264 262 263 262 262 261 257 256 251 239 231 232 234 231 227 224 225 232 235 230 229 235 240 240 241 248 252 253 251 252 259
241 241 236 235 235 237 240 244 250 253 259 267 271 267 260 262 262 260 252 239 239 238 234 234 231 227 224 220 221 224 229 231 231 234 239 239 238 242 250 251 252 256 259
245 246 241 237 237 240 241 244 248 249 253 255 254 257 253 253 252 251 240 236 237 239 233 232 229 224 222 221 220 221 228 231 230 234 239 239 239 242 248 247 246 251 254
244 246 242 240 236 237 239 241 245 247 250 253 253 252 251 246 244 244 244 239 236 239 236 231 228 224 222 220 222 225 228 232 232 233 234 237 239 245 249 246 243 245 249
243 243 236 234 236 238 242 240 241 246 249 254 261 259 255 251 240 241 244 245 241 237 231 228 228 226 220 219 222 225 228 231 230 230 233 234 237 240 242 243 244 246 246
241 243 244 242 239 245 250 245 243 245 249 250 252 254 248 241 240 240 241 241 240 239 234 228 231 232 228 227 225 222 226 230 228 223 224 230 236 239 238 241 240 241 246
238 239 243 245 242 241 243 245 245 247 248 249 250 248 244 240 240 240 240 240 235 233 233 233 236 235 232 231 230 228 228 227 224 222 218 220 228 237 239 241 243 244 246
239 240 243 245 245 245 245 245 245 246 248 249 248 248 245 241 241 241 240 237 229 230 233 236 238 235 232 229 227 228 225 226 229 226 218 217 217 226 232 233 239 242 249
245 246 248 247 245 244 244 245 245 244 247 248 247 245 241 239 241 240 238 235 230 231 235 239 234 233 234 233 228 225 225 228 230 226 217 212 213 225 226 235 233 236 242
Height
1484 1485 1486 1487 1487 1487 1488 1488 1489 1489 1489 1488 1488 1488 1487 1487 1486 1485 1485 1485 1484 1484 1484 1484 1483 1483 1483 1482 1482 1482 1481 1480 1477 1475 1476 1475 1474 1473 1472 1470 1469 1467 1466
1481 1482 1482 1483 1483 1484 1484 1485 1485 1485 1484 1484 1484 1483 1483 1482 1482 1481 1481 1481 1480 1480 1480 1479 1479 1479 1478 1478 1477 1477 1476 1475 1474 1471 1470 1470 1469 1468 1467 1465 1464 1463 1461
1478 1478 1479 1479 1479 1480 1480 1480 1480 1480 1479 1479 1479 1478 1478 1477 1477 1477 1476 1476 1475 1475 1475 1475 1474 1474 1473 1473 1472 1471 1471 1470 1469 1467 1465 1465 1464 1463 1462 1461 1459 1458 1457
1474 1475 1475 1475 1476 1476 1476 1476 1475 1475 1475 1474 1474 1474 1473 1473 1472 1472 1471 1470 1470 1470 1470 1470 1469 1469 1468 1468 1467 1467 1466 1465 1464 1463 1461 1460 1459 1458 1457 1456 1454 1453 1452
1470 1471 1471 1471 1472 1472 1471 1471 1471 1471 1470 1470 1469 1469 1468 1468 1467 1467 1466 1465 1465 1464 1464 1464 1464 1464 1463 1463 1463 1462 1461 1460 1460 1458 1457 1456 1454 1454 1453 1451 1449 1448 1446
1466 1466 1467 1467 1467 1467 1467 1467 1466 1466 1465 1465 1464 1463 1463 1463 1462 1462 1461 1460 1460 1459 1458 1458 1458 1458 1458 1457 1457 1457 1457 1456 1455 1454 1452 1451 1450 1449 1448 1447 1445 1443 1441
1462 1462 1462 1462 1462 1462 1462 1462 1461 1461 1461 1460 1459 1459 1458 1458 1457 1457 1456 1455 1454 1453 1453 1452 1452 1452 1452 1452 1451 1451 1451 1450 1450 1450 1447 1446 1445 1444 1444 1442 1441 1439 1437
1457 1457 1457 1457 1457 1457 1457 1456 1456 1456 1455 1455 1454 1454 1453 1452 1452 1451 1450 1449 1448 1447 1447 1447 1446 1446 1446 1446 1445 1445 1445 1444 1444 1444 1443 1442 1441 1440 1439 1438 1436 1435 1433
1452 1452 1452 1452 1452 1452 1452 1451 1451 1451 1450 1449 1449 1448 1447 1446 1446 1446 1445 1443 1442 1441 1441 1441 1440 1440 1440 1440 1440 1439 1438 1438 1438 1438 1437 1437 1436 1435 1434 1433 1431 1430 1427
1448 1448 1448 1448 1447 1447 1447 1446 1446 1445 1445 1444 1443 1442 1442 1441 1441 1440 1439 1438 1436 1436 1435 1435 1435 1434 1434 1434 1434 1433 1432 1432 1432 1432 1431 1430 1430 1429 1428 1428 1426 1425 1423
1443 1443 1443 1443 1442 1442 1441 1441 1440 1440 1439 1438 1438 1437 1436 1436 1435 1434 1433 1432 1431 1430 1429 1429 1429 1429 1429 1429 1428 1428 1427 1427 1426 1426 1425 1424 1424 1423 1422 1422 1421 1420 1419
1438 1438 1437 1437 1437 1436 1436 1435 1435 1434 1433 1432 1432 1431 1430 1430 1429 1428 1427 1426 1425 1424 1423 1423 1423 1423 1423 1423 1422 1422 1422 1422 1421 1420 1419 1418 1418 1417 1417 1416 1415 1415 1414
1433 1432 1432 1432 1432 1431 1431 1430 1429 1428 1428 1427 1426 1425 1424 1424 1423 1422 1421 1420 1419 1418 1418 1418 1418 1417 1417 1417 1417 1417 1417 1416 1415 1415 1414 1413 1413 1412 1412 1411 1410 1409 1408
1428 1427 1427 1427 1426 1426 1425 1424 1424 1423 1422 1421 1420 1419 1419 1418 1417 1416 1415 1414 1414 1413 1413 1412 1412 1412 1412 1411 1412 1411 1411 1411 1410 1410 1409 1408 1408 1407 1406 1406 1404 1403 1402
1423 1422 1422 1421 1421 1420 1419 1419 1418 1418 1418 1417 1415 1414 1413 1412 1411 1411 1410 1409 1409 1408 1408 1407 1407 1407 1406 1406 1406 1406 1406 1406 1405 1405 1404 1403 1403 1402 1401 1401 1400 1399 1397
1418 1417 1417 1416 1415 1414 1414 1413 1412 1412 1412 1411 1410 1409 1408 1407 1406 1405 1405 1404 1404 1404 1403 1402 1402 1402 1401 1401 1401 1401 1401 1401 1401 1400 1400 1399 1398 1397 1396 1396 1395 1394 1393
1412 1411 1411 1411 1410 1409 1408 1407 1406 1406 1405 1405 1404 1403 1403 1402 1401 1400 1399 1399 1399 1398 1398 1397 1397 1397 1396 1396 1396 1396 1396 1396 1396 1396 1395 1394 1393 1392 1392 1391 1390 1389 1388
1407 1406 1406 1405 1404 1403 1403 1402 1401 1400 1399 1397 1398 1397 1397 1396 1395 1395 1394 1394 1393 1392 1392 1392 1391 1391 1391 1391 1391 1391 1391 1391 1391 1391 1390 1390 1389 1388 1387 1386 1386 1385 1384
1401 1400 1400 1399 1398 1398 1397 1396 1395 1395 1393 1392 1391 1391 1391 1390 1390 1389 1388 1388 1387 1387 1387 1387 1387 1387 1387 1387 1387 1387 1386 1386 1386 1386 1385 1385 1384 1383 1382 1382 1381 1380 1380
1394 1394 1393 1393 1392 1391 1391 1390 1389 1389 1388 1387 1386 1385 1385 1384 1383 1383 1383 1382 1382 1381 1381 1381 1381 1382 1382 1382 1382 1382 1381 1381 1381 1381 1380 1380 1380 1379 1378 1377 1377 1376 1375
1388 1387 1387 1386 1386 1385 1384 1384 1383 1383 1382 1381 1380 1380 1380 1379 1378 1377 1377 1377 1377 1376 1376 1376 1376 1377 1377 1376 1377 1376 1376 1376 1376 1376 1376 1376 1375 1374 1374 1373 1373 1372 1372
1382 1381 1381 1380 1379 1379 1378 1378 1377 1377 1376 1375 1375 1375 1374 1374 1373 1372 1372 1372 1372 1372 1372 1372 1372 1372 1372 1372 1371 1371 1371 1371 1371 1371 1371 1371 1371 1370 1370 1369 1369 1368 1368
1376 1375 1374 1374 1373 1373 1372 1372 1371 1371 1370 1370 1370 1369 1369 1368 1368 1367 1367 1367 1367 1367 1367 1367 1367 1367 1367 1367 1367 1367 1367 1367 1367 1367 1367 1367 1366 1366 1366 1365 1365 1364 1364
1370 1369 1368 1368 1367 1367 1366 1366 1365 1365 1365 1364 1364 1364 1363 1363 1363 1362 1362 1362 1362 1362 1362 1362 1362 1362 1362 1362 1362 1362 1362 1363 1363 1363 1363 1363 1363 1362 1362 1362 1361 1361 1361
1364 1363 1363 1362 1362 1361 1361 1360 1360 1360 1359 1359 1359 1359 1358 1358 1358 1358 1357 1357 1357 1357 1357 1357 1357 1357 1357 1358 1358 1358 1358 1358 1359 1359 1359 1359 1359 1359 1359 1358 1358 1358 1357
1359 1358 1357 1357 1356 1356 1355 1355 1355 1354 1354 1354 1354 1353 1353 1353 1353 1353 1353 1353 1353 1353 1353 1353 1353 1353 1353 1353 1353 1354 1354 1354 1355 1355 1355 1355 1355 1355 1355 1355 1355 1354 1354